User: anonymous   Login
Location: Unspecified
(0.0000°N, 0.0000°E)
Time: 07:07:21
(UTC+00:00)
Language:

AO-85 - Orbit

View from above orbital plane
View from above orbital plane
View from above satellite
View from above satellite

Ground track
Ground track

The orbit data is extracted from the following two-line orbital elements,

1 40967U 15058D   18263.34376132  .00000173  00000-0  35684-4 0 04529
2 40967 064.7767 262.3667 0213134 284.8578 072.8979 14.75779161067691
Epoch (UTC): 20 September 2018 08:15:00
Eccentricity: 0.0213134
inclination: 64.7767°
perigee height: 493 km
apogee height: 792 km
right ascension of ascending node: 262.3667°
argument of perigee: 284.8578°
revolutions per day: 14.75779161
mean anomaly at epoch: 72.8979°
orbit number at epoch: 6769

The dashed part of the orbit path shows where the satellite is in the earth's shadow,  

DLR